Powrót do katalogu

SL-14 DEB

AktywnyPO
NORAD 45655·DEBRIS·🇷🇺 Russia

Wystrzelony Aug 15, 1991 z Plesetsk Cosmodrome

Loading…

Następne Przeloty (najbliższe 24 godziny)

TLE

ŚwieżeSource: Space-Track

Epoka: Sep 14, 2026, 01:06 UTC

1 45655U 91056CZ  26257.04589851 -.00000113  00000-0 -40356-3 0  9996
2 45655  82.5386 127.0551 0103415 223.1697 136.1275 12.99942283312385

Śledź SL-14 DEB w czasie rzeczywistym z AllMySat

Download on the App Store